H1 CPF 2 NER 2021 9 21 9 264 01 glonass131 H2 1301901 9131 39155 2021 9 21 0 0 0 2021 9 24 23 45 0 900 1 1 0 0 0 1 H9 10 0 59478 0.00000 0 18166880.777 -17363809.125 -4139570.197 10 0 59478 900.00000 0 17600179.930 -16913139.863 -7258763.440 10 0 59478 1800.00000 0 16847030.799 -16117861.594 -10236239.338 10 0 59478 2700.00000 0 15964706.731 -14969279.838 -13013820.947 10 0 59478 3600.00000 0 15012774.533 -13471809.100 -15537236.045 10 0 59478 4500.00000 0 14050454.388 -11643028.595 -17757196.671 10 0 59478 5400.00000 0 13134011.944 -9513187.271 -19630377.532 10 0 59478 6300.00000 0 12314295.033 -7124177.965 -21120272.699 10 0 59478 7200.00000 0 11634520.915 -4528023.892 -22197912.912 10 0 59478 8100.00000 0 11128408.714 -1784941.473 -22842429.210 10 0 59478 9000.00000 0 10818736.357 1038938.481 -23041452.142 10 0 59478 9900.00000 0 10716382.625 3874094.738 -22791339.493 10 0 59478 10800.00000 0 10819893.699 6650278.428 -22097229.293 10 0 59478 11700.00000 0 11115590.835 9299202.916 -20972918.513 10 0 59478 12600.00000 0 11578212.613 11757148.348 -19440571.423 10 0 59478 13500.00000 0 12172062.412 13967372.906 -17530265.012 10 0 59478 14400.00000 0 12852610.507 15882231.420 -15279381.866 10 0 59478 15300.00000 0 13568481.245 17464914.849 -12731863.892 10 0 59478 16200.00000 0 14263739.902 18690740.505 -9937342.654 10 0 59478 17100.00000 0 14880381.710 19547942.077 -6950164.233 10 0 59478 18000.00000 0 15360917.611 20037929.476 -3828328.356 10 0 59478 18900.00000 0 15650947.829 20175010.773 -632362.757 10 0 59478 19800.00000 0 15701615.384 19985590.748 2575845.379 10 0 59478 20700.00000 0 15471837.231 19506881.993 5734238.486 10 0 59478 21600.00000 0 14930220.356 18785184.418 8781775.930 10 0 59478 22500.00000 0 14056583.475 17873806.313 11659597.670 10 0 59478 23400.00000 0 12843021.541 16830714.409 14312143.052 10 0 59478 24300.00000 0 11294469.060 15716010.975 16688204.763 10 0 59478 25200.00000 0 9428738.718 14589342.584 18741899.371 10 0 59478 26100.00000 0 7276033.152 13507347.569 20433537.395 10 0 59478 27000.00000 0 4877948.928 12521247.299 21730377.791 10 0 59478 27900.00000 0 2286012.172 11674680.333 22607253.681 10 0 59478 28800.00000 0 -440195.743 11001868.694 23047058.131 10 0 59478 29700.00000 0 -3235247.568 10526191.965 23041081.077 10 0 59478 30600.00000 0 -6030326.092 10259228.594 22589190.689 10 0 59478 31500.00000 0 -8755827.610 10200304.927 21699854.842 10 0 59478 32400.00000 0 -11344007.664 10336571.952 20390000.890 10 0 59478 33300.00000 0 -13731561.313 10643608.209 18684714.493 10 0 59478 34200.00000 0 -15862031.993 11086525.638 16616781.124 10 0 59478 35100.00000 0 -17687949.276 11621534.054 14226076.665 10 0 59478 36000.00000 0 -19172606.178 12197900.459 11558816.558 10 0 59478 36900.00000 0 -20291400.729 12760222.149 8666676.057 10 0 59478 37800.00000 0 -21032684.213 13250918.624 5605797.070 10 0 59478 38700.00000 0 -21398078.797 13612836.998 2435699.907 10 0 59478 39600.00000 0 -21402249.434 13791859.875 -781878.977 10 0 59478 40500.00000 0 -21072138.317 13739403.571 -3984200.174 10 0 59478 41400.00000 0 -20445693.256 13414698.472 -7108760.569 10 0 59478 42300.00000 0 -19570143.496 12786752.089 -10094532.646 10 0 59478 43200.00000 0 -18499896.364 11835908.638 -12883177.607 10 0 59478 44100.00000 0 -17294144.887 10554936.227 -15420206.348 10 0 59478 45000.00000 0 -16014289.242 8949593.178 -17656063.388 10 0 59478 45900.00000 0 -14721283.124 7038647.614 -19547110.721 10 0 59478 46800.00000 0 -13473019.129 4853348.182 -21056490.891 10 0 59478 47700.00000 0 -12321865.480 2436367.733 -22154851.489 10 0 59478 48600.00000 0 -11312459.304 -159735.601 -22820916.584 10 0 59478 49500.00000 0 -10479850.195 -2874474.811 -23041894.184 10 0 59478 50400.00000 0 -9848072.221 -5641724.976 -22813712.473 10 0 59478 51300.00000 0 -9429203.590 -8392252.056 -22141081.383 10 0 59478 52200.00000 0 -9222951.986 -11056373.121 -21037379.746 10 0 59478 53100.00000 0 -9216780.871 -13566636.419 -19524371.834 10 0 59478 54000.00000 0 -9386568.886 -15860409.638 -17631760.493 10 0 59478 54900.00000 0 -9697771.953 -17882269.121 -15396587.201 10 0 59478 55800.00000 0 -10107036.554 -19586091.636 -12862492.214 10 0 59478 56700.00000 0 -10564193.983 -20936763.407 -10078850.532 10 0 59478 57600.00000 0 -11014549.777 -21911437.500 -7099801.459 10 0 59478 58500.00000 0 -11401370.620 -22500289.757 -3983191.434 10 0 59478 59400.00000 0 -11668463.376 -22706744.595 -789451.069 10 0 59478 60300.00000 0 -11762737.601 -22547164.033 2419571.843 10 0 59478 61200.00000 0 -11636644.162 -22050015.419 5581800.902 10 0 59478 62100.00000 0 -11250388.226 -21254554.707 8636119.000 10 0 59478 63000.00000 0 -10573824.628 -20209081.729 11523533.613 10 0 59478 63900.00000 0 -9587957.084 -18968841.107 14188298.221 10 0 59478 64800.00000 0 -8285979.121 -17593656.481 16578969.844 10 0 59478 65700.00000 0 -6673813.424 -16145396.198 18649384.029 10 0 59478 66600.00000 0 -4770126.811 -14685375.014 20359530.168 10 0 59478 67500.00000 0 -2605819.189 -13271798.653 21676311.957 10 0 59478 68400.00000 0 -223006.032 -11957356.066 22574179.689 10 0 59478 69300.00000 0 2326465.547 -10787058.170 23035623.134 10 0 59478 70200.00000 0 4982908.357 -9796411.882 23051515.946 10 0 59478 71100.00000 0 7681018.930 -9010004.787 22621304.801 10 0 59478 72000.00000 0 10352344.339 -8440559.345 21753038.792 10 0 59478 72900.00000 0 12927892.587 -8088496.601 20463237.137 10 0 59478 73800.00000 0 15340780.630 -7942028.724 18776595.850 10 0 59478 74700.00000 0 17528811.592 -7977778.085 16725536.796 10 0 59478 75600.00000 0 19436874.853 -8161898.692 14349605.468 10 0 59478 76500.00000 0 21019069.023 -8451654.678 11694726.749 10 0 59478 77400.00000 0 22240458.265 -8797390.972 8812331.092 10 0 59478 78300.00000 0 23078387.132 -9144814.033 5758366.463 10 0 59478 79200.00000 0 23523296.939 -9437486.665 2592214.252 10 0 59478 80100.00000 0 23579007.385 -9619430.855 -624469.906 10 0 59478 81000.00000 0 23262449.798 -9637727.106 -3828967.373 10 0 59478 81900.00000 0 22602861.848 -9444998.006 -6958735.057 10 0 59478 82800.00000 0 21640476.918 -9001668.157 -9952645.290 10 0 59478 83700.00000 0 20424763.434 -8277901.696 -12752200.793 10 0 59478 84600.00000 0 19012289.155 -7255132.333 -15302698.783 10 0 59478 85500.00000 0 17464301.976 -5927118.413 -17554319.204 10 0 59479 0.00000 0 15844131.094 -4300476.163 -19463113.948 10 0 59479 900.00000 0 14214520.237 -2394666.447 -20991876.409 10 0 59479 1800.00000 0 12635006.832 -241435.947 -22110872.967 10 0 59479 2700.00000 0 11159460.049 2116265.990 -22798422.279 10 0 59479 3600.00000 0 9833880.899 4625847.238 -23041310.982 10 0 59479 4500.00000 0 8694558.251 7227044.417 -22835038.393 10 0 59479 5400.00000 0 7766657.068 9854222.166 -22183886.644 10 0 59479 6300.00000 0 7063296.943 12438903.229 -21100816.298 10 0 59479 7200.00000 0 6585157.502 14912422.829 -19607191.061 10 0 59479 8100.00000 0 6320624.627 17208596.201 -17732338.677 10 0 59479 9000.00000 0 6246468.386 19266288.181 -15512958.133 10 0 59479 9900.00000 0 6329021.228 21031778.308 -12992386.280 10 0 59479 10800.00000 0 6525804.006 22460824.158 -10219739.420 10 0 59479 11700.00000 0 6787529.023 23520338.666 -7248947.606 10 0 59479 12600.00000 0 7060393.859 24189613.648 -4137701.226 10 0 59479 13500.00000 0 7288568.154 24461041.012 -946330.749 10 0 59479 14400.00000 0 7416768.033 24340304.095 2263358.595 10 0 59479 15300.00000 0 7392809.821 23846033.543 5429274.814 10 0 59479 16200.00000 0 7170036.105 23008944.211 8490227.544 10 0 59479 17100.00000 0 6709512.957 21870490.665 11387094.890 10 0 59479 18000.00000 0 5981907.013 20481098.331 14063947.419 10 0 59479 18900.00000 0 4968964.518 18898044.339 16469109.220 10 0 59479 19800.00000 0 3664530.834 17183075.925 18556137.315 10 0 59479 20700.00000 0 2075067.870 15399864.611 20284702.198 10 0 59479 21600.00000 0 219647.123 13611400.657 21621354.228 10 0 59479 22500.00000 0 -1870582.734 11877434.415 22540162.474 10 0 59479 23400.00000 0 -4153433.549 10252069.280 23023214.641 10 0 59479 24300.00000 0 -6577180.142 8781604.724 23060968.924 10 0 59479 25200.00000 0 -9082468.139 7502717.890 22652450.863 10 0 59479 26100.00000 0 -11604551.048 6441058.819 21805290.617 10 0 59479 27000.00000 0 -14075766.766 5610317.707 20535598.593 10 0 59479 27900.00000 0 -16428153.334 5011803.662 18867679.927 10 0 59479 28800.00000 0 -18596097.155 4634553.664 16833591.139 10 0 59479 29700.00000 0 -20518904.716 4455968.583 14472545.121 10 0 59479 30600.00000 0 -22143190.978 4442951.153 11830173.599 10 0 59479 31500.00000 0 -23424984.114 4553499.585 8957659.344 10 0 59479 32400.00000 0 -24331457.268 4738690.788 5910753.322 10 0 59479 33300.00000 0 -24842212.885 4944970.037 2748694.859 10 0 59479 34200.00000 0 -24950063.491 5116650.125 -466944.368 10 0 59479 35100.00000 0 -24661273.931 5198513.207 -3673469.583 10 0 59479 36000.00000 0 -23995252.969 5138403.354 -6808300.713 10 0 59479 36900.00000 0 -22983705.878 4889697.517 -9810212.812 10 0 59479 37800.00000 0 -21669283.127 4413547.335 -12620552.849 10 0 59479 38700.00000 0 -20103782.240 3680793.778 -15184406.876 10 0 59479 39600.00000 0 -18345979.518 2673470.673 -17451692.524 10 0 59479 40500.00000 0 -16459184.446 1385830.973 -19378153.566 10 0 59479 41400.00000 0 -14508621.541 -175149.615 -20926235.652 10 0 59479 42300.00000 0 -12558751.730 -1989814.155 -22065825.061 10 0 59479 43200.00000 0 -10670647.546 -4026410.060 -22774835.669 10 0 59479 44100.00000 0 -8899533.544 -6242194.116 -23039632.864 10 0 59479 45000.00000 0 -7292595.799 -8585009.951 -22855286.776 10 0 59479 45900.00000 0 -5887152.044 -10995270.954 -22225651.023 10 0 59479 46800.00000 0 -4709258.071 -13408264.635 -21163266.815 10 0 59479 47700.00000 0 -3772806.971 -15756680.972 -19689095.922 10 0 59479 48600.00000 0 -3079156.393 -17973258.455 -17832089.369 10 0 59479 49500.00000 0 -2617296.433 -19993436.974 -15628601.868 10 0 59479 50400.00000 0 -2364547.905 -21757906.950 -13121664.951 10 0 59479 51300.00000 0 -2287758.423 -23214949.073 -10360134.260 10 0 59479 52200.00000 0 -2344943.073 -24322468.282 -7397728.615 10 0 59479 53100.00000 0 -2487298.224 -25049638.762 -4291980.381 10 0 59479 54000.00000 0 -2661501.849 -25378093.414 -1103117.942 10 0 59479 54900.00000 0 -2812202.362 -25302610.369 2107097.961 10 0 59479 55800.00000 0 -2884590.729 -24831270.085 5276561.671 10 0 59479 56700.00000 0 -2826947.726 -23985078.510 8344011.525 10 0 59479 57600.00000 0 -2593059.803 -22797073.608 11250198.255 10 0 59479 58500.00000 0 -2144402.906 -21310953.563 13939011.539 10 0 59479 59400.00000 0 -1452003.526 -19579284.250 16358544.570 10 0 59479 60300.00000 0 -497899.655 -17661360.328 18462077.835 10 0 59479 61200.00000 0 723859.116 -15620808.056 20208964.833 10 0 59479 62100.00000 0 2206714.410 -13523028.088 21565404.343 10 0 59479 63000.00000 0 3931626.475 -11432582.624 22505085.768 10 0 59479 63900.00000 0 5867626.631 -9410633.571 23009696.072 10 0 59479 64800.00000 0 7972874.044 -7512536.126 23069279.054 10 0 59479 65700.00000 0 10196175.695 -5785686.098 22682439.904 10 0 59479 66600.00000 0 12478909.360 -4267709.299 21856390.357 10 0 59479 67500.00000 0 14757272.821 -2985067.693 20606832.225 10 0 59479 68400.00000 0 16964768.645 -1952140.358 18957679.695 10 0 59479 69300.00000 0 19034823.432 -1170818.273 16940623.559 10 0 59479 70200.00000 0 20903434.048 -630630.915 14594543.393 10 0 59479 71100.00000 0 22511731.212 -309400.698 11964776.693 10 0 59479 72000.00000 0 23808353.057 -174399.240 9102257.076 10 0 59479 72900.00000 0 24751528.308 -183957.955 6062536.633 10 0 59479 73800.00000 0 25310779.933 -289465.819 2904710.341 10 0 59479 74700.00000 0 25468175.479 -437670.057 -309736.724 10 0 59479 75600.00000 0 25219069.055 -573181.792 -3518136.586 10 0 59479 76500.00000 0 24572301.455 -641079.118 -6657875.326 10 0 59479 77400.00000 0 23549848.020 -589495.242 -9667633.936 10 0 59479 78300.00000 0 22185927.847 -372079.364 -12488606.814 10 0 59479 79200.00000 0 20525611.301 49776.914 -15065671.915 10 0 59479 80100.00000 0 18622984.786 705044.843 -17348487.423 10 0 59479 81000.00000 0 16538950.967 1611578.325 -19292491.601 10 0 59479 81900.00000 0 14338758.412 2775113.082 -20859784.801 10 0 59479 82800.00000 0 12089366.246 4188788.999 -22019875.292 10 0 59479 83700.00000 0 9856756.135 5833216.710 -22750273.966 10 0 59479 84600.00000 0 7703305.694 7677085.881 -23036926.449 10 0 59479 85500.00000 0 5685334.322 9678289.152 -22874474.789 10 0 59480 0.00000 0 3850924.270 11785513.760 -22266344.794 10 0 59480 900.00000 0 2238107.577 13940233.195 -21224658.525 10 0 59480 1800.00000 0 873492.685 16079013.833 -19769975.610 10 0 59480 2700.00000 0 -228612.929 18136039.467 -17930869.639 10 0 59480 3600.00000 0 -1066551.815 20045747.272 -15743349.880 10 0 59480 4500.00000 0 -1651124.719 21745464.556 -13250140.931 10 0 59480 5400.00000 0 -2004869.951 23177936.483 -10499835.750 10 0 59480 6300.00000 0 -2160847.362 24293639.815 -7545939.522 10 0 59480 7200.00000 0 -2160980.932 25052787.232 -4445823.879 10 0 59480 8100.00000 0 -2054032.108 25426940.103 -1259612.165 10 0 59480 9000.00000 0 -1893290.872 25400164.241 1950982.506 10 0 59480 9900.00000 0 -1734082.658 24969682.306 5123844.040 10 0 59480 10800.00000 0 -1631196.372 24145997.476 8197642.709 10 0 59480 11700.00000 0 -1636341.389 22952484.781 11113005.037 10 0 59480 12600.00000 0 -1795739.666 21424468.204 13813642.860 10 0 59480 13500.00000 0 -2147953.194 19607822.512 16247421.336 10 0 59480 14400.00000 0 -2722036.963 17557157.824 18367347.073 10 0 59480 15300.00000 0 -3536094.150 15333661.613 20132458.979 10 0 59480 16200.00000 0 -4596293.756 13002686.402 21508606.384 10 0 59480 17100.00000 0 -5896392.178 10631181.411 22469100.845 10 0 59480 18000.00000 0 -7417779.730 8285072.662 22995230.050 10 0 59480 18900.00000 0 -9130052.024 6026698.034 23076624.452 10 0 59480 19800.00000 0 -10992084.834 3912401.643 22711469.493 10 0 59480 20700.00000 0 -12953570.494 1990385.863 21906558.563 10 0 59480 21600.00000 0 -14956954.966 298909.065 20677184.419 10 0 59480 22500.00000 0 -16939697.855 -1135096.422 19046869.271 10 0 59480 23400.00000 0 -18836763.780 -2296928.340 17046936.597 10 0 59480 24300.00000 0 -20583243.142 -3184502.108 14715930.553 10 0 59480 25200.00000 0 -22116994.015 -3808204.658 12098891.846 10 0 59480 26100.00000 0 -23381194.814 -4190219.323 9246502.018 10 0 59480 27000.00000 0 -24326700.104 -4363348.884 6214111.101 10 0 59480 27900.00000 0 -24914099.173 -4369385.440 3060666.383 10 0 59480 28800.00000 0 -25115388.600 -4257095.420 -152437.078 10 0 59480 29700.00000 0 -24915185.945 -4079905.203 -3362561.514 10 0 59480 30600.00000 0 -24311430.770 -3893386.272 -6507062.512 10 0 59480 31500.00000 0 -23315541.080 -3752648.156 -9524530.235 10 0 59480 32400.00000 0 -21952016.681 -3709751.948 -12356009.595 10 0 59480 33300.00000 0 -20257504.979 -3811256.715 -14946173.313 10 0 59480 34200.00000 0 -18279368.154 -4096005.577 -17244422.693 10 0 59480 35100.00000 0 -16073812.386 -4593247.924 -19205892.690 10 0 59480 36000.00000 0 -13703658.716 -5321179.518 -20792340.078 10 0 59480 36900.00000 0 -11235850.660 -6285963.975 -21972896.298 10 0 59480 37800.00000 0 -8738804.647 -7481278.018 -22724669.847 10 0 59480 38700.00000 0 -6279715.754 -8888400.107 -23033186.571 10 0 59480 39600.00000 0 -3921932.615 -10476838.437 -22892659.865 10 0 59480 40500.00000 0 -1722511.754 -12205471.140 -22306086.594 10 0 59480 41400.00000 0 269946.795 -14024149.694 -21285168.233 10 0 59480 42300.00000 0 2017093.141 -15875696.873 -19850060.360 10 0 59480 43200.00000 0 3492177.517 -17698214.240 -18028957.023 10 0 59480 44100.00000 0 4680902.746 -19427601.411 -15857519.731 10 0 59480 45000.00000 0 5581746.674 -21000180.810 -13378163.732 10 0 59480 45900.00000 0 6205744.500 -22355317.805 -10639216.810 10 0 59480 46800.00000 0 6575743.684 -23437926.794 -7693968.047 10 0 59480 47700.00000 0 6725165.891 -24200759.085 -4599625.893 10 0 59480 48600.00000 0 6696330.865 -24606378.074 -1416206.279 10 0 59480 49500.00000 0 6538414.900 -24628740.581 1794627.576 10 0 59480 50400.00000 0 6305131.252 -24254319.925 4970751.307 10 0 59480 51300.00000 0 6052230.805 -23482725.444 8050769.164 10 0 59480 52200.00000 0 5834928.185 -22326794.062 10975185.395 10 0 59480 53100.00000 0 5705360.971 -20812151.112 13687535.774 10 0 59480 54000.00000 0 5710187.849 -18976259.316 16135459.071 10 0 59480 54900.00000 0 5888425.440 -16866995.336 18271689.488 10 0 59480 55800.00000 0 6269613.499 -14540812.431 20054952.627 10 0 59480 56700.00000 0 6872384.642 -12060564.125 21450749.443 10 0 59480 57600.00000 0 7703498.294 -9493077.297 22432014.489 10 0 59480 58500.00000 0 8757379.709 -6906573.176 22979636.781 10 0 59480 59400.00000 0 10016184.530 -4368040.713 23082833.797 10 0 59480 60300.00000 0 11450388.117 -1940668.881 22739371.365 10 0 59480 61200.00000 0 13019877.517 318557.567 21955624.466 10 0 59480 62100.00000 0 14675503.358 2361000.676 20746476.527 10 0 59480 63000.00000 0 16361029.900 4148162.139 19135057.320 10 0 59480 63900.00000 0 18015404.517 5653051.993 17152322.351 10 0 59480 64800.00000 0 19575254.083 6861075.786 14836479.492 10 0 59480 65700.00000 0 20977505.388 7770402.283 12232271.563 10 0 59480 66600.00000 0 22162020.442 8391795.058 9390126.686 10 0 59480 67500.00000 0 23074135.836 8747913.784 6365191.188 10 0 59480 68400.00000 0 23666998.293 8872113.500 3216262.748 10 0 59480 69300.00000 0 23903596.119 8806791.727 4644.201 10 0 59480 70200.00000 0 23758398.527 8601353.100 -3207059.327 10 0 59480 71100.00000 0 23218530.902 8309878.194 -6356175.523 10 0 59480 72000.00000 0 22284433.738 7988596.493 -9381206.415 10 0 59480 72900.00000 0 20969975.052 7693272.507 -12223050.103 10 0 59480 73800.00000 0 19302009.686 7476618.201 -14826176.687 10 0 59480 74700.00000 0 17319403.038 7385844.015 -17139733.077 10 0 59480 75600.00000 0 15071559.966 7460454.850 -19118553.235 10 0 59480 76500.00000 0 12616521.119 7730386.654 -20724052.504 10 0 59480 77400.00000 0 10018707.676 8214564.301 -21924987.460 10 0 59480 78300.00000 0 7346410.345 8919942.915 -22698065.960 10 0 59480 79200.00000 0 4669129.160 9841073.661 -23028395.592 10 0 59480 80100.00000 0 2054876.621 10960212.150 -22909762.302 10 0 59480 81000.00000 0 -432442.417 12247964.118 -22344734.882 10 0 59480 81900.00000 0 -2735464.618 13664440.073 -21344594.604 10 0 59480 82800.00000 0 -4805514.783 15160868.841 -19929092.956 10 0 59480 83700.00000 0 -6604377.112 16681600.726 -18126043.893 10 0 59480 84600.00000 0 -8105619.412 18166414.785 -15970760.143 10 0 59480 85500.00000 0 -9295417.676 19553032.228 -13505346.121 10 0 59481 0.00000 0 -10172849.919 20779729.853 -10777862.639 10 0 59481 900.00000 0 -10749650.369 21787943.521 -7841380.340 10 0 59481 1800.00000 0 -11049437.998 22524753.405 -4752942.078 10 0 59481 2700.00000 0 -11106454.333 22945146.411 -1572453.690 10 0 59481 3600.00000 0 -10963866.900 23013963.597 1638474.336 10 0 59481 4500.00000 0 -10671710.937 22707451.316 4817712.284 10 0 59481 5400.00000 0 -10284557.384 22014353.148 7903801.355 10 0 59481 6300.00000 0 -9859005.558 20936498.179 10837126.470 10 0 59481 7200.00000 0 -9451105.612 19488862.090 13561050.261 10 0 59481 8100.00000 0 -9113818.296 17699099.120 16022987.918 10 0 59481 9000.00000 0 -8894617.513 15606564.317 18175403.917 10 0 59481 9900.00000 0 -8833334.983 13260866.139 19976713.055 10 0 59481 10800.00000 0 -8960336.238 10720008.222 21392070.186 10 0 59481 11700.00000 0 -9295103.608 8048195.497 22394034.863 10 0 59481 12600.00000 0 -9845285.306 5313393.386 22963099.109 10 0 59481 13500.00000 0 -10606250.908 2584738.646 23088068.737 10 0 59481 14400.00000 0 -11561173.061 -70093.475 22766290.834 10 0 59481 15300.00000 0 -12681633.926 -2587458.946 22003722.352 10 0 59481 16200.00000 0 -13928733.432 -4910146.914 20814837.256 10 0 59481 17100.00000 0 -15254655.796 -6989515.625 19222372.195 10 0 59481 18000.00000 0 -16604631.461 -8787274.064 17256913.470 10 0 59481 18900.00000 0 -17919214.816 -10276835.174 14956330.921 10 0 59481 19800.00000 0 -19136784.121 -11444183.545 12365067.252 10 0 59481 20700.00000 0 -20196159.817 -12288220.143 9533294.525 10 0 59481 21600.00000 0 -21039231.400 -12820568.368 6515952.414 10 0 59481 22500.00000 0 -21613481.571 -13064848.282 3371685.785 10 0 59481 23400.00000 0 -21874299.665 -13055448.498 161701.900 10 0 59481 24300.00000 0 -21786984.480 -12835847.070 -3051430.209 10 0 59481 25200.00000 0 -21328349.199 -12456552.418 -6205013.810 10 0 59481 26100.00000 0 -20487857.714 -11972752.204 -9237466.244 10 0 59481 27000.00000 0 -19268241.650 -11441771.247 -12089542.183 10 0 59481 27900.00000 0 -17685569.650 -10920448.175 -14705512.313 10 0 59481 28800.00000 0 -15768764.374 -10462544.355 -17034272.122 10 0 59481 29700.00000 0 -13558586.579 -10116297.334 -19030357.193 10 0 59481 30600.00000 0 -11106128.784 -9922224.669 -20654843.601 10 0 59481 31500.00000 0 -8470882.351 -9911272.986 -21876114.649 10 0 59481 32400.00000 0 -5718459.951 -10103391.812 -22670478.528 10 0 59481 33300.00000 0 -2918069.996 -10506593.071 -23022624.869 10 0 59481 34200.00000 0 -139849.933 -11116535.816 -22925911.843 10 0 59481 35100.00000 0 2547829.317 -11916652.988 -22382479.256 10 0 59481 36000.00000 0 5080974.834 -12878813.571 -21403186.746 10 0 59481 36900.00000 0 7402390.293 -13964490.637 -20007379.876 10 0 59481 37800.00000 0 9463801.786 -15126384.328 -18222490.320 10 0 59481 38700.00000 0 11227603.953 -16310429.784 -16083479.562 10 0 59481 39600.00000 0 12668155.833 -17458104.040 -13632138.518 10 0 59481 40500.00000 0 13772575.366 -18508933.789 -10916258.055 10 0 59481 41400.00000 0 14541002.578 -19403097.960 -7988687.661 10 0 59481 42300.00000 0 14986323.830 -20084015.611 -4906301.463 10 0 59481 43200.00000 0 15133371.977 -20500810.819 -1728892.183 10 0 59481 44100.00000 0 15017638.867 -20610551.899 1481985.366 10 0 59481 45000.00000 0 14683556.506 -20380172.137 4664198.919 10 0 59481 45900.00000 0 14182420.719 -19787992.776 7756229.220 10 0 59481 46800.00000 0 13570045.307 -18824785.740 10698344.192 10 0 59481 47700.00000 0 12904245.338 -17494332.663 13433735.337 10 0 59481 48600.00000 0 12242254.624 -15813457.477 15909595.953 10 0 59481 49500.00000 0 11638184.697 -13811531.263 18078122.127 10 0 59481 50400.00000 0 11140630.463 -11529469.429 19897418.846 10 0 59481 51300.00000 0 10790521.456 -9018261.700 21332295.527 10 0 59481 52200.00000 0 10619307.471 -6337094.044 22354937.070 10 0 59481 53100.00000 0 10647553.732 -3551138.203 22945438.554 10 0 59481 54000.00000 0 10884004.179 -729097.696 23092193.897 10 0 59481 54900.00000 0 11325152.587 2059390.804 22792130.972 10 0 59481 55800.00000 0 11955340.686 4746395.665 22050788.023 10 0 59481 56700.00000 0 12747381.049 7268261.019 20882228.684 10 0 59481 57600.00000 0 13663681.005 9568005.129 19308795.452 10 0 59481 58500.00000 0 14657823.036 11597447.775 17360704.259 10 0 59481 59400.00000 0 15676537.842 13318978.464 15075485.594 10 0 59481 60300.00000 0 16661989.359 14706891.404 12497280.593 10 0 59481 61200.00000 0 17554277.120 15748230.465 9676003.637 10 0 59481 62100.00000 0 18294051.300 16443107.414 6666385.963 10 0 59481 63000.00000 0 18825129.935 16804478.669 3526917.656 10 0 59481 63900.00000 0 19097006.696 16857388.575 318708.282 10 0 59481 64800.00000 0 19067141.305 16637710.215 -2895711.470 10 0 59481 65700.00000 0 18702933.188 16190436.535 -6053622.770 10 0 59481 66600.00000 0 17983291.998 15567594.325 -9093360.601 10 0 59481 67500.00000 0 16899735.674 14825870.363 -11955538.487 10 0 59481 68400.00000 0 15456966.898 14024051.818 -14584229.877 10 0 59481 69300.00000 0 13672901.430 13220391.398 -16928080.880 10 0 59481 70200.00000 0 11578145.604 12470011.053 -18941330.596 10 0 59481 71100.00000 0 9214944.114 11822456.368 -20584717.571 10 0 59481 72000.00000 0 6635642.350 11319506.995 -21826253.431 10 0 59481 72900.00000 0 3900728.277 10993337.093 -22641848.123 10 0 59481 73800.00000 0 1076536.816 10865104.189 -23015774.547 10 0 59481 74700.00000 0 -1767286.046 10944026.005 -22940964.064 10 0 59481 75600.00000 0 -4560452.489 11226983.481 -22419128.115 10 0 59481 76500.00000 0 -7234723.347 11698665.358 -21460704.934 10 0 59481 77400.00000 0 -9726507.344 12332246.437 -20084633.923 10 0 59481 78300.00000 0 -11979261.258 13090568.883 -18317963.775 10 0 59481 79200.00000 0 -13945592.090 13927774.713 -16195303.586 10 0 59481 80100.00000 0 -15588975.405 14791318.789 -13758129.216 10 0 59481 81000.00000 0 -16885020.668 15624275.943 -11053959.781 10 0 59481 81900.00000 0 -17822233.679 16367843.981 -8135421.376 10 0 59481 82800.00000 0 -18402247.381 16963936.572 -5059217.163 10 0 59481 83700.00000 0 -18639514.638 17357756.899 -1885024.334 10 0 59481 84600.00000 0 -18560478.858 17500244.218 1325660.469 10 0 59481 85500.00000 0 -18202259.730 17350291.384 4510704.994 99